| time (UTC) | temp F | wind direction | speed MPH | gust MPH | rain 1hr in | rain 24hr in | rain mn in | humidity % | barometer mb |
| 20260903182604 | 52 | 124 | 0.0 | 2.0 | 0.00 | 0.18 | 0.00 | 70 | 1011.1 |
| 20260903182104 | 52 | 160 | 0.0 | 0.0 | 0.00 | 0.18 | 0.00 | 71 | 1011.2 |
| 20260903181103 | 51 | 148 | 0.0 | 1.0 | 0.00 | 0.18 | 0.00 | 71 | 1011.1 |
| 20260903180604 | 51 | 244 | 0.0 | 3.0 | 0.00 | 0.18 | 0.00 | 73 | 1011.1 |
| 20260903180104 | 51 | 70 | 0.0 | 1.0 | 0.00 | 0.18 | 0.00 | 74 | 1011.1 |
| 20260903175604 | 51 | 216 | 0.0 | 2.0 | 0.00 | 0.18 | 0.00 | 74 | 1011.1 |
| 20260903175103 | 50 | 217 | 0.0 | 1.0 | 0.00 | 0.18 | 0.00 | 74 | 1011.0 |
| 20260903174604 | 51 | 194 | 0.0 | 0.0 | 0.00 | 0.18 | 0.00 | 76 | 1011.1 |
| 20260903174104 | 50 | 194 | 0.0 | 2.0 | 0.00 | 0.18 | 0.00 | 76 | 1011.0 |
| 20260903173604 | 50 | 231 | 0.0 | 2.0 | 0.00 | 0.18 | 0.00 | 77 | 1011.0 |
| 20260903172604 | 50 | 159 | 0.0 | 1.0 | 0.00 | 0.18 | 0.00 | 77 | 1011.1 |
| 20260903171104 | 49 | 183 | 0.0 | 0.0 | 0.00 | 0.18 | 0.00 | 80 | 1011.0 |
| 20260903165604 | 48 | 165 | 0.0 | 0.0 | 0.00 | 0.18 | 0.00 | 81 | 1011.0 |
| 20260903165104 | 48 | 152 | 0.0 | 1.0 | 0.00 | 0.18 | 0.00 | 80 | 1011.1 |
| 20260903164603 | 48 | 153 | 0.0 | 0.0 | 0.00 | 0.18 | 0.00 | 81 | 1011.2 |
| 20260903163603 | 48 | 160 | 0.0 | 0.0 | 0.00 | 0.18 | 0.00 | 82 | 1011.2 |
| 20260903163104 | 48 | 160 | 0.0 | 0.0 | 0.00 | 0.18 | 0.00 | 81 | 1011.2 |
| 20260903162104 | 47 | 160 | 0.0 | 0.0 | 0.00 | 0.18 | 0.00 | 81 | 1011.0 |
| 20260903161605 | 47 | 160 | 0.0 | 1.0 | 0.00 | 0.18 | 0.00 | 81 | 1011.0 |
| 20260903161104 | 47 | 150 | 0.0 | 0.0 | 0.00 | 0.18 | 0.00 | 81 | 1011.1 |
| 20260903160604 | 47 | 150 | 0.0 | 0.0 | 0.00 | 0.18 | 0.00 | 82 | 1011.3 |
| 20260903160104 | 47 | 150 | 0.0 | 2.0 | 0.00 | 0.18 | 0.00 | 82 | 1011.4 |
| 20260903155103 | 47 | 189 | 0.0 | 0.0 | 0.00 | 0.18 | 0.00 | 82 | 1011.4 |
| 20260903154603 | 47 | 189 | 0.0 | 0.0 | 0.00 | 0.18 | 0.00 | 83 | 1011.4 |
| 20260903154104 | 47 | 189 | 0.0 | 0.0 | 0.00 | 0.18 | 0.00 | 82 | 1011.4 |
| 20260903153603 | 47 | 189 | 0.0 | 0.0 | 0.00 | 0.18 | 0.00 | 83 | 1011.4 |
| 20260903153104 | 46 | 189 | 0.0 | 0.0 | 0.00 | 0.18 | 0.00 | 83 | 1011.4 |
| 20260903152604 | 46 | 189 | 0.0 | 0.0 | 0.00 | 0.18 | 0.00 | 83 | 1011.4 |
| 20260903151604 | 46 | 189 | 0.0 | 0.0 | 0.00 | 0.18 | 0.00 | 84 | 1011.4 |
| 20260903151103 | 46 | 189 | 0.0 | 0.0 | 0.00 | 0.18 | 0.00 | 84 | 1011.4 |
| 20260903150603 | 45 | 189 | 0.0 | 0.0 | 0.00 | 0.18 | 0.00 | 84 | 1011.4 |
| 20260903150104 | 45 | 189 | 0.0 | 0.0 | 0.00 | 0.18 | 0.00 | 84 | 1011.2 |
| 20260903145604 | 45 | 189 | 0.0 | 1.0 | 0.00 | 0.18 | 0.00 | 85 | 1011.3 |
| 20260903145103 | 45 | 189 | 0.0 | 0.0 | 0.00 | 0.18 | 0.00 | 85 | 1011.1 |
| 20260903144603 | 45 | 189 | 0.0 | 0.0 | 0.00 | 0.18 | 0.00 | 85 | 1011.1 |
| 20260903144103 | 45 | 189 | 0.0 | 0.0 | 0.00 | 0.18 | 0.00 | 85 | 1011.2 |
| 20260903143603 | 44 | 189 | 0.0 | 0.0 | 0.00 | 0.18 | 0.00 | 85 | 1011.1 |
| 20260903142103 | 44 | 189 | 0.0 | 0.0 | 0.00 | 0.18 | 0.00 | 85 | 1011.2 |
| 20260903141604 | 44 | 189 | 0.0 | 0.0 | 0.00 | 0.18 | 0.00 | 85 | 1011.1 |
| 20260903141103 | 44 | 189 | 0.0 | 0.0 | 0.00 | 0.18 | 0.00 | 85 | 1011.1 |
| 20260903140604 | 44 | 189 | 0.0 | 0.0 | 0.00 | 0.18 | 0.00 | 85 | 1011.2 |
| 20260903140104 | 44 | 189 | 0.0 | 0.0 | 0.00 | 0.18 | 0.00 | 85 | 1011.2 |
| 20260903135604 | 44 | 189 | 0.0 | 0.0 | 0.00 | 0.18 | 0.00 | 85 | 1011.3 |
| 20260903135103 | 44 | 189 | 0.0 | 0.0 | 0.00 | 0.18 | 0.00 | 84 | 1011.3 |
| 20260903134604 | 44 | 189 | 0.0 | 0.0 | 0.00 | 0.18 | 0.00 | 84 | 1011.3 |
| 20260903134104 | 44 | 189 | 0.0 | 0.0 | 0.00 | 0.18 | 0.00 | 83 | 1011.3 |
| 20260903133603 | 45 | 189 | 0.0 | 0.0 | 0.00 | 0.18 | 0.00 | 83 | 1011.3 |
| 20260903132104 | 44 | 182 | 0.0 | 0.0 | 0.00 | 0.18 | 0.00 | 84 | 1011.1 |
| 20260903131604 | 44 | 182 | 0.0 | 0.0 | 0.00 | 0.18 | 0.00 | 85 | 1011.1 |
| 20260903131104 | 44 | 182 | 0.0 | 0.0 | 0.00 | 0.18 | 0.00 | 85 | 1011.0 |
| 20260903130604 | 44 | 182 | 0.0 | 0.0 | 0.00 | 0.18 | 0.00 | 86 | 1011.0 |
| 20260903125104 | 43 | 182 | 0.0 | 0.0 | 0.00 | 0.18 | 0.00 | 88 | 1010.9 |
| 20260903124103 | 43 | 182 | 0.0 | 0.0 | 0.00 | 0.18 | 0.00 | 89 | 1010.8 |
| 20260903123604 | 43 | 182 | 0.0 | 0.0 | 0.00 | 0.18 | 0.00 | 89 | 1010.7 |
| 20260903123104 | 43 | 182 | 0.0 | 0.0 | 0.00 | 0.18 | 0.00 | 89 | 1010.7 |
| 20260903122603 | 43 | 182 | 0.0 | 0.0 | 0.00 | 0.18 | 0.00 | 90 | 1010.7 |
| 20260903122103 | 43 | 182 | 0.0 | 0.0 | 0.00 | 0.18 | 0.00 | 91 | 1010.8 |
| 20260903121104 | 42 | 182 | 0.0 | 0.0 | 0.00 | 0.18 | 0.00 | 91 | 1010.7 |
| 20260903120604 | 42 | 182 | 0.0 | 0.0 | 0.00 | 0.18 | 0.00 | 91 | 1010.7 |
| 20260903120104 | 42 | 182 | 0.0 | 0.0 | 0.00 | 0.18 | 0.00 | 91 | 1010.8 |
| 20260903115606 | 42 | 182 | 0.0 | 0.0 | 0.00 | 0.18 | 0.00 | 90 | 1010.7 |
| 20260903114604 | 43 | 182 | 0.0 | 0.0 | 0.00 | 0.18 | 0.00 | 89 | 1010.7 |
| 20260903114104 | 43 | 182 | 0.0 | 0.0 | 0.00 | 0.18 | 0.00 | 88 | 1010.5 |
| 20260903113104 | 44 | 182 | 0.0 | 0.0 | 0.00 | 0.18 | 0.00 | 87 | 1010.7 |
| 20260903112604 | 44 | 182 | 0.0 | 0.0 | 0.00 | 0.18 | 0.00 | 87 | 1010.6 |
| 20260903112104 | 44 | 182 | 0.0 | 0.0 | 0.00 | 0.18 | 0.00 | 87 | 1010.5 |
| 20260903111604 | 44 | 182 | 0.0 | 0.0 | 0.00 | 0.18 | 0.00 | 88 | 1010.5 |
| 20260903111104 | 44 | 182 | 0.0 | 0.0 | 0.00 | 0.18 | 0.00 | 88 | 1010.5 |
| 20260903110604 | 45 | 182 | 0.0 | 0.0 | 0.00 | 0.18 | 0.00 | 88 | 1010.5 |
| 20260903110104 | 45 | 182 | 0.0 | 0.0 | 0.00 | 0.18 | 0.00 | 87 | 1010.5 |
| 20260903105604 | 45 | 182 | 0.0 | 0.0 | 0.00 | 0.18 | 0.00 | 87 | 1010.5 |
| 20260903105104 | 45 | 182 | 0.0 | 0.0 | 0.00 | 0.18 | 0.00 | 86 | 1010.6 |
| 20260903104104 | 45 | 182 | 0.0 | 0.0 | 0.00 | 0.18 | 0.00 | 85 | 1010.6 |
| 20260903103604 | 45 | 182 | 0.0 | 0.0 | 0.00 | 0.18 | 0.00 | 84 | 1010.6 |
| 20260903103104 | 45 | 182 | 0.0 | 0.0 | 0.00 | 0.18 | 0.00 | 85 | 1010.6 |
| 20260903102603 | 45 | 182 | 0.0 | 0.0 | 0.00 | 0.18 | 0.00 | 84 | 1010.6 |
| 20260903102104 | 45 | 182 | 0.0 | 0.0 | 0.00 | 0.18 | 0.00 | 85 | 1010.7 |
| 20260903101604 | 45 | 182 | 0.0 | 0.0 | 0.00 | 0.18 | 0.00 | 85 | 1010.7 |
| 20260903101104 | 45 | 182 | 0.0 | 0.0 | 0.00 | 0.18 | 0.00 | 84 | 1010.7 |
| 20260903100604 | 45 | 182 | 0.0 | 0.0 | 0.00 | 0.18 | 0.00 | 85 | 1010.6 |
| 20260903095603 | 46 | 182 | 0.0 | 1.0 | 0.00 | 0.18 | 0.00 | 85 | 1010.3 |
| 20260903095104 | 46 | 212 | 0.0 | 0.0 | 0.00 | 0.18 | 0.00 | 85 | 1010.3 |
| 20260903094103 | 46 | 192 | 0.0 | 1.0 | 0.00 | 0.18 | 0.00 | 85 | 1010.2 |
| 20260903093604 | 46 | 205 | 0.0 | 1.0 | 0.00 | 0.18 | 0.00 | 85 | 1010.4 |
| 20260903093104 | 46 | 212 | 0.0 | 0.0 | 0.00 | 0.18 | 0.00 | 84 | 1010.3 |
| 20260903092603 | 46 | 218 | 0.0 | 1.0 | 0.00 | 0.18 | 0.00 | 84 | 1010.2 |
| 20260903091604 | 46 | 208 | 0.0 | 3.0 | 0.00 | 0.18 | 0.00 | 85 | 1010.0 |
| 20260903091105 | 46 | 213 | 0.0 | 2.0 | 0.00 | 0.18 | 0.00 | 85 | 1010.0 |
| 20260903090604 | 47 | 174 | 0.0 | 3.0 | 0.00 | 0.18 | 0.00 | 84 | 1009.9 |
| 20260903085603 | 47 | 168 | 0.0 | 5.0 | 0.00 | 0.18 | 0.00 | 85 | 1010.1 |
| 20260903085103 | 47 | 171 | 1.0 | 3.0 | 0.00 | 0.18 | 0.00 | 84 | 1010.0 |
| 20260903084604 | 47 | 196 | 1.0 | 3.0 | 0.00 | 0.18 | 0.00 | 85 | 1010.0 |
| 20260903084104 | 47 | 145 | 0.0 | 3.0 | 0.00 | 0.18 | 0.00 | 85 | 1010.2 |
| 20260903083604 | 47 | 160 | 0.0 | 2.0 | 0.00 | 0.18 | 0.00 | 85 | 1010.1 |
| 20260903083104 | 47 | 235 | 0.0 | 3.0 | 0.00 | 0.18 | 0.00 | 84 | 1010.2 |
| 20260903082103 | 47 | 183 | 0.0 | 1.0 | 0.00 | 0.18 | 0.00 | 84 | 1010.0 |
| 20260903081604 | 47 | 182 | 0.0 | 1.0 | 0.00 | 0.18 | 0.00 | 83 | 1010.0 |
| 20260903081104 | 48 | 182 | 0.0 | 3.0 | 0.00 | 0.18 | 0.00 | 82 | 1009.8 |
| 20260903080604 | 48 | 128 | 1.0 | 3.0 | 0.00 | 0.18 | 0.00 | 82 | 1009.7 |
| 20260903080104 | 48 | 200 | 1.0 | 5.0 | 0.00 | 0.18 | 0.00 | 82 | 1009.7 |
| 20260903075604 | 48 | 187 | 1.0 | 5.0 | 0.00 | 0.18 | 0.00 | 82 | 1009.8 |
| 20260903075103 | 47 | 175 | 0.0 | 3.0 | 0.00 | 0.18 | 0.00 | 83 | 1009.6 |
| 20260903074104 | 48 | 182 | 0.0 | 3.0 | 0.00 | 0.18 | 0.00 | 82 | 1009.5 |
| 20260903073604 | 47 | 253 | 1.0 | 3.0 | 0.00 | 0.18 | 0.00 | 83 | 1009.5 |
| 20260903073103 | 47 | 109 | 0.0 | 3.0 | 0.00 | 0.18 | 0.00 | 85 | 1009.6 |
| 20260903072603 | 47 | 229 | 0.0 | 8.0 | 0.00 | 0.18 | 0.00 | 86 | 1009.6 |
| 20260903072104 | 47 | 210 | 1.0 | 3.0 | 0.00 | 0.18 | 0.00 | 86 | 1009.6 |
| 20260903071604 | 47 | 155 | 0.0 | 0.0 | 0.00 | 0.18 | 0.00 | 88 | 1009.6 |
| 20260903071104 | 47 | 178 | 0.0 | 0.0 | 0.00 | 0.18 | 0.00 | 88 | 1009.5 |
| 20260903070604 | 47 | 178 | 0.0 | 0.0 | 0.00 | 0.18 | 0.00 | 88 | 1009.5 |
| 20260903070104 | 47 | 178 | 0.0 | 0.0 | 0.00 | 0.18 | 0.00 | 88 | 1009.5 |
| 20260903065603 | 48 | 178 | 0.0 | 0.0 | 0.00 | 0.18 | 0.18 | 88 | 1009.4 |
| 20260903065104 | 48 | 178 | 0.0 | 0.0 | 0.00 | 0.18 | 0.18 | 87 | 1009.5 |
| 20260903064603 | 48 | 178 | 0.0 | 0.0 | 0.00 | 0.18 | 0.18 | 87 | 1009.4 |
| 20260903064104 | 48 | 178 | 0.0 | 0.0 | 0.00 | 0.18 | 0.18 | 87 | 1009.5 |
| 20260903063604 | 48 | 178 | 0.0 | 0.0 | 0.00 | 0.18 | 0.18 | 87 | 1009.4 |
| 20260903063103 | 49 | 178 | 0.0 | 0.0 | 0.00 | 0.18 | 0.18 | 89 | 1009.2 |
| 20260903062604 | 49 | 178 | 0.0 | 0.0 | 0.00 | 0.18 | 0.18 | 90 | 1009.1 |
| 20260903062104 | 49 | 178 | 0.0 | 0.0 | 0.00 | 0.18 | 0.18 | 90 | 1009.0 |
| 20260903061605 | 49 | 178 | 0.0 | 0.0 | 0.00 | 0.18 | 0.18 | 91 | 1009.2 |
| 20260903060104 | 49 | 178 | 0.0 | 0.0 | 0.00 | 0.18 | 0.18 | 90 | 1009.4 |
| 20260903055104 | 49 | 166 | 0.0 | 3.0 | 0.00 | 0.18 | 0.18 | 89 | 1009.3 |
| 20260903054604 | 49 | 182 | 0.0 | 0.0 | 0.00 | 0.18 | 0.18 | 89 | 1009.3 |
| 20260903054104 | 49 | 182 | 0.0 | 1.0 | 0.00 | 0.18 | 0.18 | 89 | 1009.2 |
| 20260903053104 | 49 | 236 | 1.0 | 3.0 | 0.00 | 0.18 | 0.18 | 88 | 1009.3 |
| 20260903052603 | 49 | 221 | 0.0 | 3.0 | 0.00 | 0.18 | 0.18 | 88 | 1009.2 |
| 20260903052103 | 49 | 156 | 0.0 | 2.0 | 0.00 | 0.18 | 0.18 | 88 | 1009.2 |
| 20260903051104 | 50 | 196 | 0.0 | 2.0 | 0.00 | 0.18 | 0.18 | 87 | 1009.1 |
| 20260903050604 | 50 | 200 | 0.0 | 1.0 | 0.00 | 0.18 | 0.18 | 87 | 1009.0 |
| 20260903050104 | 50 | 199 | 0.0 | 2.0 | 0.00 | 0.18 | 0.18 | 86 | 1008.9 |
| 20260903045604 | 50 | 173 | 0.0 | 2.0 | 0.00 | 0.18 | 0.18 | 85 | 1008.9 |
| 20260903045104 | 50 | 185 | 0.0 | 1.0 | 0.00 | 0.18 | 0.18 | 85 | 1008.9 |
| 20260903044604 | 50 | 169 | 0.0 | 1.0 | 0.00 | 0.18 | 0.18 | 85 | 1008.7 |
| 20260903044104 | 50 | 144 | 0.0 | 0.0 | 0.00 | 0.18 | 0.18 | 85 | 1008.7 |
| 20260903043604 | 50 | 143 | 0.0 | 1.0 | 0.00 | 0.18 | 0.18 | 85 | 1008.8 |
| 20260903041604 | 50 | 129 | 0.0 | 0.0 | 0.00 | 0.18 | 0.18 | 86 | 1008.3 |
| 20260903041104 | 50 | 129 | 0.0 | 0.0 | 0.01 | 0.18 | 0.18 | 87 | 1008.4 |
| 20260903040604 | 50 | 128 | 0.0 | 0.0 | 0.01 | 0.18 | 0.18 | 88 | 1008.3 |
| 20260903035604 | 49 | 130 | 0.0 | 0.0 | 0.01 | 0.18 | 0.18 | 89 | 1008.3 |
| 20260903035104 | 49 | 128 | 0.0 | 0.0 | 0.01 | 0.18 | 0.18 | 89 | 1008.2 |
| 20260903034105 | 49 | 127 | 0.0 | 0.0 | 0.01 | 0.18 | 0.18 | 89 | 1008.2 |
| 20260903033604 | 49 | 125 | 0.0 | 1.0 | 0.01 | 0.18 | 0.18 | 89 | 1008.1 |
| 20260903033104 | 49 | 130 | 0.0 | 1.0 | 0.01 | 0.18 | 0.18 | 89 | 1008.1 |
| 20260903032103 | 49 | 124 | 0.0 | 2.0 | 0.01 | 0.18 | 0.18 | 88 | 1008.1 |
| 20260903031606 | 49 | 158 | 0.0 | 0.0 | 0.01 | 0.18 | 0.18 | 88 | 1008.0 |
| 20260903031103 | 49 | 158 | 0.0 | 0.0 | 0.00 | 0.17 | 0.17 | 86 | 1008.1 |
| 20260903030604 | 49 | 175 | 0.0 | 0.0 | 0.00 | 0.17 | 0.17 | 86 | 1008.1 |
| 20260903030104 | 49 | 175 | 0.0 | 1.0 | 0.00 | 0.17 | 0.17 | 86 | 1008.0 |
| 20260903025604 | 49 | 201 | 0.0 | 1.0 | 0.00 | 0.17 | 0.17 | 86 | 1008.1 |
| 20260903024104 | 50 | 159 | 0.0 | 0.0 | 0.00 | 0.17 | 0.17 | 87 | 1008.0 |
| 20260903023603 | 50 | 157 | 0.0 | 1.0 | 0.00 | 0.17 | 0.17 | 87 | 1008.1 |
| 20260903023104 | 50 | 157 | 0.0 | 2.0 | 0.01 | 0.17 | 0.17 | 87 | 1007.9 |
| 20260903022604 | 50 | 127 | 0.0 | 1.0 | 0.01 | 0.17 | 0.17 | 87 | 1007.8 |
| 20260903022103 | 50 | 183 | 0.0 | 0.0 | 0.02 | 0.17 | 0.17 | 88 | 1008.0 |
| 20260903021603 | 50 | 182 | 0.0 | 1.0 | 0.03 | 0.17 | 0.17 | 87 | 1007.8 |
| 20260903021104 | 50 | 148 | 0.0 | 0.0 | 0.05 | 0.17 | 0.17 | 89 | 1007.6 |
| 20260903020603 | 50 | 150 | 0.0 | 3.0 | 0.06 | 0.17 | 0.17 | 88 | 1007.5 |
| 20260903020104 | 50 | 201 | 0.0 | 1.0 | 0.08 | 0.17 | 0.17 | 87 | 1007.8 |
| 20260903015604 | 51 | 225 | 0.0 | 1.0 | 0.08 | 0.17 | 0.17 | 87 | 1008.5 |
| 20260903015103 | 51 | 250 | 0.0 | 0.0 | 0.09 | 0.17 | 0.17 | 88 | 1008.7 |
| 20260903014604 | 51 | 248 | 0.0 | 0.0 | 0.10 | 0.17 | 0.17 | 88 | 1008.6 |
| 20260903014104 | 52 | 199 | 0.0 | 3.0 | 0.10 | 0.17 | 0.17 | 91 | 1008.7 |
| 20260903013104 | 52 | 145 | 0.0 | 0.0 | 0.09 | 0.16 | 0.16 | 89 | 1008.6 |
| 20260903012603 | 52 | 144 | 0.0 | 0.0 | 0.09 | 0.16 | 0.16 | 90 | 1008.6 |
| 20260903012104 | 53 | 149 | 0.0 | 1.0 | 0.08 | 0.15 | 0.15 | 90 | 1008.5 |
| 20260903011604 | 53 | 242 | 0.0 | 3.0 | 0.07 | 0.14 | 0.14 | 89 | 1008.5 |
| 20260903011104 | 53 | 254 | 0.0 | 0.0 | 0.05 | 0.12 | 0.12 | 89 | 1008.4 |
| 20260903010604 | 53 | 257 | 0.0 | 3.0 | 0.04 | 0.11 | 0.11 | 89 | 1008.3 |
| 20260903010104 | 53 | 95 | 0.0 | 0.0 | 0.02 | 0.09 | 0.09 | 88 | 1008.2 |
| 20260903005603 | 54 | 94 | 0.0 | 0.0 | 0.02 | 0.09 | 0.09 | 88 | 1008.0 |
| 20260903004604 | 54 | 83 | 0.0 | 2.0 | 0.00 | 0.07 | 0.07 | 85 | 1008.0 |
| 20260903004104 | 54 | 129 | 0.0 | 3.0 | 0.00 | 0.07 | 0.07 | 84 | 1007.9 |
| 20260903003604 | 54 | 163 | 0.0 | 3.0 | 0.00 | 0.07 | 0.07 | 82 | 1007.9 |
| 20260903003104 | 55 | 157 | 0.0 | 3.0 | 0.00 | 0.07 | 0.07 | 80 | 1007.9 |
| 20260903002604 | 55 | 174 | 1.0 | 3.0 | 0.00 | 0.07 | 0.07 | 79 | 1007.7 |
| 20260903002104 | 56 | 134 | 1.0 | 10.0 | 0.00 | 0.07 | 0.07 | 77 | 1007.8 |
| 20260903001604 | 56 | 172 | 1.0 | 5.0 | 0.00 | 0.07 | 0.07 | 76 | 1007.8 |
| 20260903001104 | 56 | 215 | 0.0 | 5.0 | 0.00 | 0.07 | 0.07 | 76 | 1007.7 |
| 20260903000604 | 56 | 159 | 0.0 | 5.0 | 0.00 | 0.07 | 0.07 | 75 | 1007.6 |
| 20260903000104 | 56 | 107 | 1.0 | 12.0 | 0.00 | 0.07 | 0.07 | 76 | 1007.5 |
| 20260902235604 | 56 | 138 | 1.0 | 6.0 | 0.00 | 0.07 | 0.07 | 76 | 1007.3 |
| 20260902235104 | 56 | 130 | 0.0 | 5.0 | 0.00 | 0.07 | 0.07 | 77 | 1007.3 |
| 20260902234604 | 56 | 163 | 0.0 | 3.0 | 0.00 | 0.07 | 0.07 | 77 | 1007.2 |
| 20260902234104 | 55 | 156 | 0.0 | 3.0 | 0.00 | 0.07 | 0.07 | 78 | 1007.2 |
| 20260902233104 | 55 | 120 | 0.0 | 3.0 | 0.00 | 0.07 | 0.07 | 80 | 1007.1 |
| 20260902232604 | 55 | 194 | 1.0 | 10.0 | 0.00 | 0.07 | 0.07 | 80 | 1007.0 |
| 20260902232104 | 55 | 149 | 0.0 | 5.0 | 0.00 | 0.07 | 0.07 | 80 | 1006.9 |
| 20260902231603 | 55 | 158 | 1.0 | 5.0 | 0.00 | 0.07 | 0.07 | 81 | 1006.8 |
| 20260902230604 | 55 | 123 | 0.0 | 2.0 | 0.00 | 0.07 | 0.07 | 81 | 1007.0 |
| 20260902230104 | 55 | 119 | 0.0 | 3.0 | 0.00 | 0.07 | 0.07 | 82 | 1007.0 |
| 20260902225603 | 56 | 150 | 0.0 | 0.0 | 0.00 | 0.07 | 0.07 | 82 | 1007.0 |
| 20260902225104 | 56 | 201 | 0.0 | 6.0 | 0.00 | 0.07 | 0.07 | 82 | 1007.0 |
| 20260902224604 | 56 | 172 | 0.0 | 2.0 | 0.00 | 0.07 | 0.07 | 82 | 1007.0 |
| 20260902223604 | 55 | 121 | 0.0 | 2.0 | 0.00 | 0.07 | 0.07 | 81 | 1006.7 |
| 20260902223104 | 55 | 208 | 0.0 | 2.0 | 0.00 | 0.07 | 0.07 | 82 | 1006.6 |
| 20260902222604 | 55 | 169 | 1.0 | 7.0 | 0.00 | 0.07 | 0.07 | 82 | 1006.4 |
| 20260902222104 | 54 | 198 | 1.0 | 3.0 | 0.00 | 0.07 | 0.07 | 83 | 1006.3 |
| 20260902221604 | 54 | 196 | 0.0 | 3.0 | 0.00 | 0.07 | 0.07 | 83 | 1006.2 |
| 20260902221104 | 54 | 166 | 0.0 | 3.0 | 0.00 | 0.07 | 0.07 | 84 | 1006.2 |
| 20260902220604 | 54 | 191 | 0.0 | 3.0 | 0.00 | 0.07 | 0.07 | 84 | 1006.1 |
| 20260902220104 | 54 | 219 | 1.0 | 6.0 | 0.00 | 0.07 | 0.07 | 82 | 1006.3 |
| 20260902215604 | 54 | 229 | 0.0 | 7.0 | 0.00 | 0.07 | 0.07 | 83 | 1006.3 |
| 20260902215104 | 54 | 186 | 0.0 | 2.0 | 0.00 | 0.07 | 0.07 | 83 | 1006.2 |
| 20260902214605 | 54 | 182 | 1.0 | 8.0 | 0.01 | 0.07 | 0.07 | 83 | 1006.3 |
| 20260902214104 | 54 | 150 | 0.0 | 5.0 | 0.01 | 0.07 | 0.07 | 83 | 1006.4 |
| 20260902213603 | 54 | 163 | 1.0 | 3.0 | 0.01 | 0.07 | 0.07 | 83 | 1006.5 |
| 20260902213104 | 54 | 207 | 1.0 | 5.0 | 0.01 | 0.07 | 0.07 | 83 | 1006.5 |
| 20260902212604 | 54 | 73 | 1.0 | 5.0 | 0.01 | 0.07 | 0.07 | 83 | 1006.5 |
| 20260902212104 | 54 | 158 | 0.0 | 2.0 | 0.01 | 0.07 | 0.07 | 84 | 1006.6 |
| 20260902211604 | 54 | 143 | 1.0 | 9.0 | 0.01 | 0.07 | 0.07 | 84 | 1006.5 |
| 20260902211104 | 54 | 156 | 0.0 | 3.0 | 0.01 | 0.07 | 0.07 | 85 | 1006.6 |
| 20260902210604 | 53 | 132 | 0.0 | 6.0 | 0.01 | 0.07 | 0.07 | 85 | 1006.5 |
| 20260902210105 | 53 | 214 | 0.0 | 3.0 | 0.02 | 0.07 | 0.07 | 85 | 1006.4 |
| 20260902205604 | 53 | 174 | 0.0 | 3.0 | 0.02 | 0.07 | 0.07 | 86 | 1006.4 |
| 20260902204604 | 53 | 120 | 0.0 | 3.0 | 0.02 | 0.06 | 0.06 | 86 | 1006.3 |
| 20260902204104 | 52 | 161 | 0.0 | 2.0 | 0.02 | 0.06 | 0.06 | 86 | 1006.3 |
| 20260902203604 | 52 | 170 | 0.0 | 1.0 | 0.02 | 0.06 | 0.06 | 86 | 1006.2 |
| 20260902203104 | 52 | 196 | 2.0 | 8.0 | 0.02 | 0.06 | 0.06 | 85 | 1006.2 |
| 20260902202604 | 52 | 101 | 1.0 | 5.0 | 0.02 | 0.06 | 0.06 | 86 | 1006.2 |
| 20260902202104 | 52 | 177 | 1.0 | 3.0 | 0.03 | 0.06 | 0.06 | 86 | 1006.3 |
| 20260902201603 | 51 | 160 | 1.0 | 5.0 | 0.03 | 0.06 | 0.06 | 87 | 1006.2 |
| 20260902201104 | 51 | 135 | 1.0 | 5.0 | 0.04 | 0.06 | 0.06 | 86 | 1006.4 |
| 20260902200104 | 52 | 217 | 0.0 | 3.0 | 0.04 | 0.05 | 0.05 | 86 | 1006.6 |
| 20260902195604 | 52 | 121 | 0.0 | 2.0 | 0.04 | 0.05 | 0.05 | 85 | 1006.6 |
| 20260902195104 | 52 | 145 | 0.0 | 2.0 | 0.04 | 0.05 | 0.05 | 86 | 1006.6 |
| 20260902194104 | 52 | 183 | 0.0 | 3.0 | 0.04 | 0.04 | 0.04 | 85 | 1006.6 |
| 20260902193604 | 52 | 162 | 0.0 | 3.0 | 0.04 | 0.04 | 0.04 | 86 | 1006.7 |
| 20260902193104 | 52 | 171 | 0.0 | 2.0 | 0.04 | 0.04 | 0.04 | 86 | 1006.7 |
| 20260902192604 | 52 | 160 | 0.0 | 3.0 | 0.04 | 0.04 | 0.04 | 85 | 1006.6 |
| 20260902192104 | 53 | 180 | 2.0 | 8.0 | 0.03 | 0.03 | 0.03 | 84 | 1006.7 |
| 20260902191104 | 53 | 120 | 0.0 | 3.0 | 0.02 | 0.02 | 0.02 | 84 | 1006.8 |
| 20260902190604 | 54 | 192 | 0.0 | 2.0 | 0.02 | 0.02 | 0.02 | 83 | 1006.8 |
| 20260902190105 | 54 | 230 | 0.0 | 3.0 | 0.01 | 0.01 | 0.01 | 82 | 1006.8 |
| 20260902185604 | 54 | 214 | 1.0 | 3.0 | 0.01 | 0.01 | 0.01 | 80 | 1006.8 |
| 20260902185103 | 55 | 128 | 0.0 | 1.0 | 0.01 | 0.01 | 0.01 | 78 | 1006.7 |
| 20260902184604 | 55 | 145 | 0.0 | 2.0 | 0.00 | 0.00 | 0.00 | 76 | 1006.7 |
| 20260902184104 | 56 | 136 | 0.0 | 1.0 | 0.00 | 0.00 | 0.00 | 74 | 1006.6 |
| 20260902183104 | 56 | 150 | 0.0 | 2.0 | 0.00 | 0.00 | 0.00 | 69 | 1006.5 |